"read_dt","SO2 (ppb)","flags","PMT voltage (V)","lamp voltage (V)","lamp intensity (Hz)","internal temp (C)","react chamber temp (C)","sample flow (l/min)","pres (mmHg)","SO2 bkg (ppb)","SO2 coefficient"
2016-08-12 00:00:00,2268E-3,5C000400,-0724,0824,12373,028.7,045.5,0.254,750.1,01.17,0.508
2016-08-12 00:01:00,2304E-3,5C000400,-0724,0824,12325,028.7,045.5,0.253,750.1,01.17,0.508
2016-08-12 00:02:00,2242E-3,5C000400,-0724,0823,12428,028.7,045.5,0.254,750.0,01.17,0.508
2016-08-12 00:03:00,2368E-3,5C000400,-0724,0824,12254,028.7,045.5,0.253,750.1,01.17,0.508
2016-08-12 00:04:00,2355E-3,5C000400,-0724,0825,12264,028.7,045.5,0.254,750.0,01.17,0.508
2016-08-12 00:05:00,2227E-3,5C000400,-0724,0824,12191,028.7,045.5,0.253,750.1,01.17,0.508
2016-08-12 00:06:00,2320E-3,5C000400,-0724,0824,12213,028.7,045.5,0.254,750.1,01.17,0.508
2016-08-12 00:07:00,2261E-3,5C000400,-0724,0824,12277,028.7,045.5,0.253,750.2,01.17,0.508
2016-08-12 00:08:00,2216E-3,5C000400,-0724,0825,12248,028.7,045.5,0.254,750.2,01.17,0.508
2016-08-12 00:09:00,2318E-3,5C000400,-0724,0824,12242,028.7,045.5,0.253,750.2,01.17,0.508
2016-08-12 00:10:00,2396E-3,5C000400,-0724,0825,12272,028.7,045.5,0.254,750.2,01.17,0.508
2016-08-12 00:11:00,2400E-3,5C000400,-0724,0824,12268,028.7,045.5,0.254,750.2,01.17,0.508
2016-08-12 00:12:00,2355E-3,5C000400,-0724,0824,12258,028.7,045.5,0.253,750.2,01.17,0.508
2016-08-12 00:13:00,2303E-3,5C000400,-0724,0824,12254,028.7,045.5,0.254,750.3,01.17,0.508
2016-08-12 00:14:00,2284E-3,5C000400,-0724,0824,12346,028.7,045.5,0.253,750.3,01.17,0.508
2016-08-12 00:15:00,2319E-3,5C000400,-0724,0825,12307,028.7,045.5,0.254,750.3,01.17,0.508
2016-08-12 00:16:00,2372E-3,5C000400,-0724,0824,12165,028.7,045.5,0.253,750.2,01.17,0.508
2016-08-12 00:17:00,2358E-3,5C000400,-0724,0824,12169,028.7,045.5,0.254,750.3,01.17,0.508
2016-08-12 00:18:00,2259E-3,5C000400,-0724,0824,12101,028.7,045.5,0.253,750.2,01.17,0.508
2016-08-12 00:19:00,2179E-3,5C000400,-0724,0824,12363,028.7,045.5,0.254,750.3,01.17,0.508
2016-08-12 00:20:00,2290E-3,5C000400,-0724,0824,12267,028.7,045.5,0.253,750.3,01.17,0.508
2016-08-12 00:21:00,2260E-3,5C000400,-0724,0824,12193,028.7,045.5,0.254,750.3,01.17,0.508
2016-08-12 00:22:00,2411E-3,5C000400,-0724,0824,12180,028.7,045.5,0.254,750.3,01.17,0.508
2016-08-12 00:23:00,2211E-3,5C000400,-0724,0823,11992,028.7,045.5,0.253,750.3,01.17,0.508
2016-08-12 00:24:00,2302E-3,5C000400,-0724,0824,12230,028.7,045.4,0.254,750.3,01.17,0.508
2016-08-12 00:25:00,2254E-3,5C000400,-0724,0824,12280,028.7,045.5,0.253,750.2,01.17,0.508
2016-08-12 00:26:00,2382E-3,5C000400,-0724,0825,12283,028.7,045.5,0.254,750.2,01.17,0.508
2016-08-12 00:27:00,2314E-3,5C000400,-0724,0824,12243,028.7,045.5,0.254,750.2,01.17,0.508
2016-08-12 00:28:00,2163E-3,5C000400,-0724,0825,12278,028.7,045.5,0.254,750.2,01.17,0.508
2016-08-12 00:29:00,2325E-3,5C000400,-0724,0824,12336,028.7,045.5,0.254,750.2,01.17,0.508
2016-08-12 00:30:00,2254E-3,5C000400,-0724,0824,12152,028.7,045.5,0.253,750.3,01.17,0.508
2016-08-12 00:31:00,2383E-3,5C000400,-0724,0825,12376,028.7,045.5,0.254,750.2,01.17,0.508
2016-08-12 00:32:00,2328E-3,5C000400,-0724,0823,12137,028.7,045.5,0.253,750.2,01.17,0.508
2016-08-12 00:33:00,2325E-3,5C000400,-0724,0823,12264,028.7,045.5,0.254,750.2,01.17,0.508
2016-08-12 00:34:00,2273E-3,5C000400,-0724,0824,12208,028.7,045.5,0.253,750.3,01.17,0.508
2016-08-12 00:35:00,2308E-3,5C000400,-0724,0824,12182,028.7,045.5,0.253,750.2,01.17,0.508
2016-08-12 00:36:00,2298E-3,5C000400,-0724,0825,12187,028.7,045.5,0.254,750.3,01.17,0.508
2016-08-12 00:37:00,2292E-3,5C000400,-0724,0824,12231,028.8,045.5,0.253,750.3,01.17,0.508
2016-08-12 00:38:00,2264E-3,5C000400,-0724,0824,12226,028.7,045.5,0.254,750.3,01.17,0.508
2016-08-12 00:39:00,2277E-3,5C000400,-0724,0824,12169,028.7,045.5,0.253,750.2,01.17,0.508
2016-08-12 00:40:00,2279E-3,5C000400,-0724,0824,12112,028.7,045.5,0.254,750.2,01.17,0.508
2016-08-12 00:41:00,2354E-3,5C000400,-0724,0826,12286,028.8,045.5,0.253,750.3,01.17,0.508
2016-08-12 00:42:00,2255E-3,5C000400,-0724,0825,12272,028.7,045.5,0.253,750.3,01.17,0.508
2016-08-12 00:43:00,2346E-3,5C000400,-0724,0825,12417,028.7,045.5,0.253,750.3,01.17,0.508
2016-08-12 00:44:00,2331E-3,5C000400,-0724,0824,12195,028.8,045.5,0.253,750.2,01.17,0.508
2016-08-12 00:45:00,2178E-3,5C000400,-0724,0825,12160,028.8,045.5,0.254,750.2,01.17,0.508
2016-08-12 00:46:00,2410E-3,5C000400,-0724,0824,12239,028.8,045.5,0.253,750.2,01.17,0.508
2016-08-12 00:47:00,2274E-3,5C000400,-0724,0825,12232,028.7,045.5,0.254,750.2,01.17,0.508
2016-08-12 00:48:00,2293E-3,5C000400,-0724,0825,12348,028.8,045.5,0.253,750.2,01.17,0.508
2016-08-12 00:49:00,2282E-3,5C000400,-0724,0824,12226,028.8,045.5,0.254,750.2,01.17,0.508
2016-08-12 00:50:00,2218E-3,5C000400,-0724,0824,12315,028.8,045.5,0.253,750.1,01.17,0.508
2016-08-12 00:51:00,2300E-3,5C000400,-0724,0825,12315,028.8,045.5,0.253,750.1,01.17,0.508
2016-08-12 00:52:00,2262E-3,5C000400,-0724,0824,12242,028.8,045.5,0.253,750.1,01.17,0.508
2016-08-12 00:53:00,2338E-3,5C000400,-0724,0824,12147,028.8,045.5,0.253,750.1,01.17,0.508
2016-08-12 00:54:00,2192E-3,5C000400,-0724,0824,12282,028.8,045.5,0.254,750.1,01.17,0.508
2016-08-12 00:55:00,2173E-3,5C000400,-0724,0825,12107,028.7,045.5,0.253,750.2,01.17,0.508
2016-08-12 00:56:00,2262E-3,5C000400,-0724,0824,12231,028.8,045.5,0.254,750.2,01.17,0.508
2016-08-12 00:57:00,2272E-3,5C000400,-0724,0825,11142,028.8,045.5,0.253,750.1,01.17,0.508
2016-08-12 00:58:00,2339E-3,5C000400,-0724,0825,12351,028.7,045.5,0.254,750.1,01.17,0.508
2016-08-12 00:59:00,2232E-3,5C000400,-0724,0825,12279,028.7,045.5,0.253,750.2,01.17,0.508
2016-08-12 01:00:00,2433E-3,5C000400,-0724,0825,12191,028.8,045.5,0.254,750.1,01.17,0.508
2016-08-12 01:01:00,2263E-3,5C000400,-0724,0824,12254,028.8,045.5,0.253,750.1,01.17,0.508
2016-08-12 01:02:00,2313E-3,5C000400,-0724,0825,12253,028.8,045.5,0.253,750.1,01.17,0.508
2016-08-12 01:03:00,2401E-3,5C000400,-0724,0824,12265,028.8,045.5,0.253,750.1,01.17,0.508
2016-08-12 01:04:00,2235E-3,5C000400,-0724,0825,12379,028.8,045.5,0.253,750.1,01.17,0.508
2016-08-12 01:05:00,2240E-3,5C000400,-0724,0824,12181,028.8,045.5,0.254,750.0,01.17,0.508
2016-08-12 01:06:00,2362E-3,5C000400,-0724,0824,12251,028.8,045.5,0.253,750.0,01.17,0.508
2016-08-12 01:07:00,2312E-3,5C000400,-0724,0824,12107,028.8,045.5,0.254,750.0,01.17,0.508
2016-08-12 01:08:00,2234E-3,5C000400,-0724,0824,12347,028.8,045.5,0.253,750.1,01.17,0.508
2016-08-12 01:09:00,2307E-3,5C000400,-0724,0825,12128,028.8,045.5,0.253,750.1,01.17,0.508
2016-08-12 01:10:00,2416E-3,5C000400,-0724,0824,12184,028.8,045.5,0.253,750.0,01.17,0.508
2016-08-12 01:11:00,2334E-3,5C000400,-0724,0824,12235,028.8,045.5,0.253,750.0,01.17,0.508
2016-08-12 01:12:00,2371E-3,5C000400,-0724,0824,12237,028.8,045.5,0.254,750.0,01.17,0.508
2016-08-12 01:13:00,2308E-3,5C000400,-0724,0825,12264,028.8,045.5,0.253,750.1,01.17,0.508
2016-08-12 01:14:00,2409E-3,5C000400,-0724,0824,12265,028.8,045.5,0.254,750.0,01.17,0.508
2016-08-12 01:15:00,2368E-3,5C000400,-0724,0824,12258,028.8,045.5,0.253,750.0,01.17,0.508
2016-08-12 01:16:00,2351E-3,5C000400,-0724,0825,12240,028.8,045.5,0.253,750.1,01.17,0.508
2016-08-12 01:17:00,2446E-3,5C000400,-0724,0825,12151,028.8,045.5,0.253,750.1,01.17,0.508
2016-08-12 01:18:00,2270E-3,5C000400,-0724,0824,12087,028.8,045.5,0.253,750.1,01.17,0.508
2016-08-12 01:19:00,2414E-3,5C000400,-0724,0824,12208,028.8,045.5,0.253,750.0,01.17,0.508
2016-08-12 01:20:00,2265E-3,5C000400,-0724,0825,12245,028.8,045.5,0.253,750.1,01.17,0.508
2016-08-12 01:21:00,2404E-3,5C000400,-0724,0824,12259,028.8,045.5,0.253,750.0,01.17,0.508
2016-08-12 01:22:00,2383E-3,5C000400,-0724,0824,12332,028.8,045.5,0.253,750.0,01.17,0.508
2016-08-12 01:23:00,2359E-3,5C000400,-0724,0825,12292,028.8,045.4,0.253,750.0,01.17,0.508
2016-08-12 01:24:00,2333E-3,5C000400,-0724,0824,12298,028.8,045.5,0.253,750.1,01.17,0.508
2016-08-12 01:25:00,2469E-3,5C000400,-0724,0825,12268,028.8,045.5,0.254,750.0,01.17,0.508
2016-08-12 01:26:00,2309E-3,5C000400,-0724,0825,12451,028.8,045.5,0.253,750.0,01.17,0.508
2016-08-12 01:27:00,2246E-3,5C000400,-0724,0825,12186,028.8,045.5,0.254,750.0,01.17,0.508
2016-08-12 01:28:00,2268E-3,5C000400,-0724,0825,12309,028.8,045.5,0.254,750.0,01.17,0.508
2016-08-12 01:29:00,2264E-3,5C000400,-0724,0825,12319,028.8,045.5,0.253,750.0,01.17,0.508
2016-08-12 01:30:00,2270E-3,5C000400,-0724,0825,12156,028.8,045.5,0.254,750.0,01.17,0.508
2016-08-12 01:31:00,2351E-3,5C000400,-0724,0824,12230,028.8,045.5,0.253,750.1,01.17,0.508
2016-08-12 01:32:00,2291E-3,5C000400,-0724,0824,12081,028.8,045.5,0.254,750.1,01.17,0.508
2016-08-12 01:33:00,2349E-3,5C000400,-0724,0824,12252,028.8,045.5,0.253,750.0,01.17,0.508
2016-08-12 01:34:00,2405E-3,5C000400,-0724,0825,12136,028.8,045.5,0.253,750.0,01.17,0.508
2016-08-12 01:35:00,2325E-3,5C000400,-0724,0824,12246,028.8,045.5,0.253,750.1,01.17,0.508
2016-08-12 01:36:00,2318E-3,5C000400,-0724,0825,12112,028.9,045.5,0.253,750.2,01.17,0.508
2016-08-12 01:37:00,2187E-3,5C000400,-0724,0825,12222,028.8,045.5,0.253,750.1,01.17,0.508
2016-08-12 01:38:00,2233E-3,5C000400,-0724,0824,12176,028.8,045.5,0.253,750.1,01.17,0.508
2016-08-12 01:39:00,2357E-3,5C000400,-0724,0823,12270,028.8,045.5,0.253,750.1,01.17,0.508
2016-08-12 01:40:00,2326E-3,5C000400,-0724,0824,12156,028.8,045.5,0.253,750.1,01.17,0.508
2016-08-12 01:41:00,2294E-3,5C000400,-0724,0824,12218,028.8,045.5,0.253,750.2,01.17,0.508
2016-08-12 01:42:00,2346E-3,5C000400,-0724,0825,12241,028.8,045.5,0.253,750.1,01.17,0.508
2016-08-12 01:43:00,2225E-3,5C000400,-0724,0824,12183,028.8,045.5,0.253,750.1,01.17,0.508
2016-08-12 01:44:00,2298E-3,5C000400,-0724,0825,12287,028.8,045.5,0.253,750.1,01.17,0.508
2016-08-12 01:45:00,2411E-3,5C000400,-0724,0824,12352,028.8,045.5,0.253,750.1,01.17,0.508
2016-08-12 01:46:00,2373E-3,5C000400,-0724,0825,12310,028.8,045.5,0.253,750.1,01.17,0.508
2016-08-12 01:47:00,2280E-3,5C000400,-0724,0824,12141,028.8,045.4,0.254,750.0,01.17,0.508
2016-08-12 01:48:00,2250E-3,5C000400,-0724,0824,12168,028.8,045.5,0.253,750.0,01.17,0.508
2016-08-12 01:49:00,2261E-3,5C000400,-0724,0824,12118,028.8,045.4,0.253,750.0,01.17,0.508
2016-08-12 01:50:00,2355E-3,5C000400,-0724,0824,12123,028.8,045.5,0.253,750.1,01.17,0.508
2016-08-12 01:51:00,2235E-3,5C000400,-0724,0824,12344,028.8,045.5,0.253,750.0,01.17,0.508
2016-08-12 01:52:00,2364E-3,5C000400,-0724,0825,12199,028.8,045.5,0.253,750.1,01.17,0.508
2016-08-12 01:53:00,2304E-3,5C000400,-0724,0825,12270,028.8,045.5,0.253,750.1,01.17,0.508
2016-08-12 01:54:00,2411E-3,5C000400,-0724,0825,12223,028.8,045.5,0.253,750.0,01.17,0.508
2016-08-12 01:55:00,2342E-3,5C000400,-0724,0824,12164,028.8,045.5,0.253,750.0,01.17,0.508
2016-08-12 01:56:00,2389E-3,5C000400,-0724,0825,12300,028.8,045.5,0.253,750.0,01.17,0.508
2016-08-12 01:57:00,2427E-3,5C000400,-0724,0825,12311,028.9,045.5,0.253,749.9,01.17,0.508
2016-08-12 01:58:00,2291E-3,5C000400,-0724,0825,12223,028.8,045.5,0.253,749.7,01.17,0.508
2016-08-12 01:59:00,2232E-3,5C000400,-0724,0824,12300,028.8,045.5,0.253,749.8,01.17,0.508
2016-08-12 02:00:00,2396E-3,5C000400,-0724,0825,12202,028.9,045.5,0.253,749.8,01.17,0.508
2016-08-12 02:01:00,2284E-3,5C000400,-0724,0825,12202,028.8,045.5,0.253,749.7,01.17,0.508
2016-08-12 02:02:00,2324E-3,5C000400,-0724,0824,12353,028.9,045.5,0.254,749.8,01.17,0.508
2016-08-12 02:03:00,2414E-3,5C000400,-0724,0825,12285,028.8,045.5,0.253,749.7,01.17,0.508
2016-08-12 02:04:00,2313E-3,5C000400,-0724,0825,12288,028.8,045.5,0.254,749.7,01.17,0.508
2016-08-12 02:05:00,2322E-3,5C000400,-0724,0824,12376,028.9,045.5,0.253,749.7,01.17,0.508
2016-08-12 02:06:00,2350E-3,5C000400,-0724,0825,12310,028.9,045.5,0.253,749.7,01.17,0.508
2016-08-12 02:07:00,2433E-3,5C000400,-0724,0825,12217,028.9,045.5,0.253,749.7,01.17,0.508
2016-08-12 02:08:00,2402E-3,5C000400,-0724,0824,12336,028.8,045.5,0.253,749.7,01.17,0.508
2016-08-12 02:09:00,2263E-3,5C000400,-0724,0825,12282,028.8,045.5,0.253,749.8,01.17,0.508
2016-08-12 02:10:00,2336E-3,5C000400,-0724,0825,12319,028.9,045.5,0.253,749.8,01.17,0.508
2016-08-12 02:11:00,2436E-3,5C000400,-0724,0824,12377,028.8,045.5,0.253,749.7,01.17,0.508
2016-08-12 02:12:00,2316E-3,5C000400,-0724,0825,12411,028.8,045.5,0.253,749.7,01.17,0.508
2016-08-12 02:13:00,2263E-3,5C000400,-0724,0824,12304,028.9,045.5,0.253,749.6,01.17,0.508
2016-08-12 02:14:00,2280E-3,5C000400,-0724,0824,12122,028.8,045.5,0.253,749.7,01.17,0.508
2016-08-12 02:15:00,2468E-3,5C000400,-0724,0825,12238,028.9,045.5,0.253,749.6,01.17,0.508
2016-08-12 02:16:00,2238E-3,5C000400,-0724,0825,12321,028.9,045.5,0.253,749.7,01.17,0.508
2016-08-12 02:17:00,2323E-3,5C000400,-0724,0824,12223,028.8,045.5,0.253,749.7,01.17,0.508
2016-08-12 02:18:00,2282E-3,5C000400,-0724,0825,12257,028.8,045.5,0.253,749.8,01.17,0.508
2016-08-12 02:19:00,2397E-3,5C000400,-0724,0824,12333,028.9,045.5,0.253,749.7,01.17,0.508
2016-08-12 02:20:00,2252E-3,5C000400,-0724,0825,12207,028.9,045.5,0.253,749.8,01.17,0.508
2016-08-12 02:21:00,2291E-3,5C000400,-0724,0825,12083,028.9,045.5,0.253,749.8,01.17,0.508
2016-08-12 02:22:00,2310E-3,5C000400,-0724,0824,12127,028.8,045.5,0.253,749.9,01.17,0.508
2016-08-12 02:23:00,2518E-3,5C000400,-0724,0824,12353,028.8,045.5,0.253,749.9,01.17,0.508
2016-08-12 02:24:00,2451E-3,5C000400,-0724,0824,12350,028.9,045.5,0.253,749.8,01.17,0.508
2016-08-12 02:25:00,2347E-3,5C000400,-0724,0824,12165,028.8,045.5,0.253,749.9,01.17,0.508
2016-08-12 02:26:00,2208E-3,5C000400,-0724,0824,12287,028.8,045.5,0.253,749.9,01.17,0.508
2016-08-12 02:27:00,2257E-3,5C000400,-0724,0824,12275,028.9,045.5,0.254,749.9,01.17,0.508
2016-08-12 02:28:00,2218E-3,5C000400,-0724,0824,12346,028.9,045.5,0.254,750.0,01.17,0.508
2016-08-12 02:29:00,2371E-3,5C000400,-0724,0824,12198,028.8,045.5,0.253,750.0,01.17,0.508
2016-08-12 02:30:00,2353E-3,5C000400,-0724,0824,12217,028.8,045.5,0.253,749.9,01.17,0.508
2016-08-12 02:31:00,2352E-3,5C000400,-0724,0824,12328,028.8,045.5,0.253,749.9,01.17,0.508
2016-08-12 02:32:00,2296E-3,5C000400,-0724,0824,12274,028.9,045.5,0.253,749.9,01.17,0.508
2016-08-12 02:33:00,2268E-3,5C000400,-0724,0824,12256,028.9,045.5,0.253,749.9,01.17,0.508
2016-08-12 02:34:00,2169E-3,5C000400,-0724,0824,12358,028.8,045.5,0.253,749.9,01.17,0.508
2016-08-12 02:35:00,2365E-3,5C000400,-0724,0825,12184,028.9,045.5,0.253,749.9,01.17,0.508
2016-08-12 02:36:00,2156E-3,5C000400,-0724,0824,12256,028.9,045.5,0.253,749.9,01.17,0.508
2016-08-12 02:37:00,2337E-3,5C000400,-0724,0825,12256,028.9,045.5,0.253,750.0,01.17,0.508
2016-08-12 02:38:00,2282E-3,5C000400,-0724,0824,12241,028.8,045.5,0.253,749.9,01.17,0.508
2016-08-12 02:39:00,2404E-3,5C000400,-0724,0824,12059,028.9,045.5,0.253,750.0,01.17,0.508
2016-08-12 02:40:00,2286E-3,5C000400,-0724,0824,12410,028.8,045.5,0.253,750.0,01.17,0.508
2016-08-12 02:41:00,2364E-3,5C000400,-0724,0824,12248,028.9,045.5,0.253,749.9,01.17,0.508
2016-08-12 02:42:00,2107E-3,5C000400,-0724,0824,12155,028.8,045.5,0.253,749.9,01.17,0.508
2016-08-12 02:43:00,2243E-3,5C000400,-0724,0824,12290,028.8,045.5,0.253,750.0,01.17,0.508
2016-08-12 02:44:00,2348E-3,5C000400,-0724,0823,12154,028.8,045.5,0.253,750.0,01.17,0.508
2016-08-12 02:45:00,2510E-3,5C000400,-0724,0824,12303,028.8,045.5,0.253,750.0,01.17,0.508
2016-08-12 02:46:00,2397E-3,5C000400,-0724,0824,12358,028.9,045.5,0.253,750.0,01.17,0.508
2016-08-12 02:47:00,2210E-3,5C000400,-0724,0824,12107,028.9,045.5,0.253,750.0,01.17,0.508
2016-08-12 02:48:00,2234E-3,5C000400,-0724,0824,12340,028.8,045.5,0.253,750.0,01.17,0.508
2016-08-12 02:49:00,2301E-3,5C000400,-0724,0824,12327,028.8,045.5,0.253,750.2,01.17,0.508
2016-08-12 02:50:00,2390E-3,5C000400,-0724,0824,12141,028.9,045.5,0.253,750.1,01.17,0.508
2016-08-12 02:51:00,2289E-3,5C000400,-0724,0825,12321,028.8,045.5,0.253,750.1,01.17,0.508
2016-08-12 02:52:00,2427E-3,5C000400,-0724,0824,12323,028.8,045.5,0.253,750.1,01.17,0.508
2016-08-12 02:53:00,2232E-3,5C000400,-0724,0824,12222,028.9,045.5,0.253,750.1,01.17,0.508
2016-08-12 02:54:00,2267E-3,5C000400,-0724,0824,12296,028.9,045.5,0.253,750.2,01.17,0.508
2016-08-12 02:55:00,2153E-3,5C000400,-0724,0824,12367,028.9,045.5,0.253,750.2,01.17,0.508
2016-08-12 02:56:00,2339E-3,5C000400,-0724,0824,12232,028.9,045.5,0.253,750.2,01.17,0.508
2016-08-12 02:57:00,2314E-3,5C000400,-0724,0824,12354,028.9,045.5,0.253,750.2,01.17,0.508
2016-08-12 02:58:00,2222E-3,5C000400,-0724,0824,12318,028.9,045.5,0.253,750.2,01.17,0.508
2016-08-12 02:59:00,2361E-3,5C000400,-0724,0825,12136,028.9,045.5,0.253,750.2,01.17,0.508
2016-08-12 03:00:00,2227E-3,5C000400,-0724,0824,12265,028.9,045.5,0.253,750.2,01.17,0.508
2016-08-12 03:01:00,2404E-3,5C000400,-0724,0824,12292,028.9,045.5,0.253,750.2,01.17,0.508
2016-08-12 03:02:00,2235E-3,5C000400,-0724,0825,12075,028.9,045.5,0.253,750.2,01.17,0.508
2016-08-12 03:03:00,2363E-3,5C000400,-0724,0824,12077,028.9,045.5,0.253,750.2,01.17,0.508
2016-08-12 03:04:00,2355E-3,5C000400,-0724,0824,12219,028.9,045.5,0.253,750.2,01.17,0.508
2016-08-12 03:05:00,2392E-3,5C000400,-0724,0824,12207,028.9,045.5,0.253,750.2,01.17,0.508
2016-08-12 03:06:00,2390E-3,5C000400,-0724,0824,12180,028.9,045.5,0.253,750.2,01.17,0.508
2016-08-12 03:07:00,2282E-3,5C000400,-0724,0824,12155,028.9,045.5,0.253,750.3,01.17,0.508
2016-08-12 03:08:00,2507E-3,5C000400,-0724,0824,12235,028.9,045.5,0.253,750.2,01.17,0.508
2016-08-12 03:09:00,2178E-3,5C000400,-0724,0824,12329,028.9,045.5,0.253,750.3,01.17,0.508
2016-08-12 03:10:00,2407E-3,5C000400,-0724,0825,12175,028.9,045.5,0.253,750.2,01.17,0.508
2016-08-12 03:11:00,2273E-3,5C000400,-0724,0824,12405,028.9,045.5,0.253,750.2,01.17,0.508
2016-08-12 03:12:00,2276E-3,5C000400,-0724,0824,12203,028.9,045.5,0.253,750.2,01.17,0.508
2016-08-12 03:13:00,2400E-3,5C000400,-0724,0824,12119,028.9,045.5,0.253,750.3,01.17,0.508
2016-08-12 03:14:00,2221E-3,5C000400,-0724,0824,12276,028.9,045.5,0.253,750.3,01.17,0.508
2016-08-12 03:15:00,2462E-3,5C000400,-0724,0825,12233,028.9,045.5,0.253,750.2,01.17,0.508
2016-08-12 03:16:00,2368E-3,5C000400,-0724,0824,12125,028.9,045.5,0.253,750.3,01.17,0.508
2016-08-12 03:17:00,2272E-3,5C000400,-0724,0824,12230,028.9,045.5,0.253,750.3,01.17,0.508
2016-08-12 03:18:00,2320E-3,5C000400,-0724,0824,12158,028.9,045.5,0.253,750.2,01.17,0.508
2016-08-12 03:19:00,2419E-3,5C000400,-0724,0825,12241,028.9,045.5,0.253,750.3,01.17,0.508
2016-08-12 03:20:00,2220E-3,5C000400,-0724,0825,12299,028.9,045.5,0.253,750.3,01.17,0.508
2016-08-12 03:21:00,2336E-3,5C000400,-0724,0824,12311,028.9,045.5,0.253,750.2,01.17,0.508
2016-08-12 03:22:00,2266E-3,5C000400,-0724,0824,12278,028.9,045.5,0.253,750.3,01.17,0.508
2016-08-12 03:23:00,2280E-3,5C000400,-0724,0823,12183,028.9,045.5,0.253,750.2,01.17,0.508
2016-08-12 03:24:00,2243E-3,5C000400,-0724,0825,12358,028.9,045.5,0.253,750.2,01.17,0.508
2016-08-12 03:25:00,2434E-3,5C000400,-0724,0824,12383,028.9,045.5,0.253,750.2,01.17,0.508
2016-08-12 03:26:00,2275E-3,5C000400,-0724,0825,12208,028.9,045.5,0.253,750.0,01.17,0.508
2016-08-12 03:27:00,2227E-3,5C000400,-0724,0824,12124,028.9,045.5,0.254,750.0,01.17,0.508
2016-08-12 03:28:00,2460E-3,5C000400,-0724,0824,12397,028.9,045.5,0.253,750.1,01.17,0.508
2016-08-12 03:29:00,2295E-3,5C000400,-0724,0824,12193,028.9,045.5,0.254,750.1,01.17,0.508
2016-08-12 03:30:00,2373E-3,5C000400,-0724,0825,12111,028.9,045.5,0.253,750.1,01.17,0.508
2016-08-12 03:31:00,2195E-3,5C000400,-0724,0823,12145,028.9,045.5,0.253,750.1,01.17,0.508
2016-08-12 03:32:00,2309E-3,5C000400,-0724,0824,12219,028.9,045.5,0.253,750.1,01.17,0.508
2016-08-12 03:33:00,2339E-3,5C000400,-0724,0824,12049,028.9,045.5,0.253,750.0,01.17,0.508
2016-08-12 03:34:00,2335E-3,5C000400,-0724,0824,12269,028.9,045.5,0.253,750.1,01.17,0.508
2016-08-12 03:35:00,2439E-3,5C000400,-0724,0824,12146,028.9,045.5,0.253,750.0,01.17,0.508
2016-08-12 03:36:00,2320E-3,5C000400,-0724,0825,12263,028.9,045.5,0.253,750.1,01.17,0.508
2016-08-12 03:37:00,2327E-3,5C000400,-0724,0824,12273,028.9,045.5,0.253,750.1,01.17,0.508
2016-08-12 03:38:00,2324E-3,5C000400,-0724,0823,12165,028.9,045.5,0.253,750.1,01.17,0.508
2016-08-12 03:39:00,2203E-3,5C000400,-0724,0826,12160,028.9,045.5,0.253,750.0,01.17,0.508
2016-08-12 03:40:00,2346E-3,5C000400,-0724,0824,12259,028.9,045.5,0.253,749.9,01.17,0.508
2016-08-12 03:41:00,2367E-3,5C000400,-0724,0824,12124,028.9,045.5,0.253,749.8,01.17,0.508
2016-08-12 03:42:00,2389E-3,5C000400,-0724,0824,12196,028.9,045.5,0.253,750.0,01.17,0.508
2016-08-12 03:43:00,2239E-3,5C000400,-0724,0825,12261,029.0,045.5,0.253,750.1,01.17,0.508
2016-08-12 03:44:00,2321E-3,5C000400,-0724,0824,12390,028.9,045.5,0.253,749.9,01.17,0.508
2016-08-12 03:45:00,2344E-3,5C000400,-0724,0825,12295,028.9,045.5,0.253,749.9,01.17,0.508
2016-08-12 03:46:00,2365E-3,5C000400,-0724,0825,12225,029.0,045.5,0.253,750.0,01.17,0.508
2016-08-12 03:47:00,2225E-3,5C000400,-0724,0825,12294,029.0,045.5,0.253,749.9,01.17,0.508
2016-08-12 03:48:00,2257E-3,5C000400,-0724,0824,12160,029.0,045.5,0.253,750.0,01.17,0.508
2016-08-12 03:49:00,2351E-3,5C000400,-0724,0824,12194,029.0,045.5,0.253,749.9,01.17,0.508
2016-08-12 03:50:00,2381E-3,5C000400,-0724,0824,12306,029.0,045.5,0.253,749.9,01.17,0.508
2016-08-12 03:51:00,2374E-3,5C000400,-0724,0824,12325,028.9,045.5,0.253,749.8,01.17,0.508
2016-08-12 03:52:00,2124E-3,5C000400,-0724,0825,12257,029.0,045.5,0.253,749.8,01.17,0.508
2016-08-12 03:53:00,2293E-3,5C000400,-0724,0824,12317,029.0,045.5,0.253,750.0,01.17,0.508
2016-08-12 03:54:00,2336E-3,5C000400,-0724,0824,12177,029.0,045.5,0.253,749.9,01.17,0.508
2016-08-12 03:55:00,2280E-3,5C000400,-0724,0824,12342,029.0,045.5,0.253,749.9,01.17,0.508
2016-08-12 03:56:00,2223E-3,5C000400,-0724,0824,12291,029.0,045.5,0.253,749.8,01.17,0.508
2016-08-12 03:57:00,2279E-3,5C000400,-0724,0824,12189,028.9,045.5,0.253,750.0,01.17,0.508
2016-08-12 03:58:00,2318E-3,5C000400,-0724,0825,12210,029.0,045.5,0.253,749.8,01.17,0.508
2016-08-12 03:59:00,2364E-3,5C000400,-0724,0825,12245,029.0,045.5,0.253,749.8,01.17,0.508
2016-08-12 04:00:00,2159E-3,5C000400,-0724,0824,12370,029.0,045.5,0.253,749.8,01.17,0.508
2016-08-12 04:01:00,2344E-3,5C000400,-0724,0824,12270,029.0,045.5,0.253,749.8,01.17,0.508
2016-08-12 04:02:00,2267E-3,5C000400,-0724,0824,12133,029.0,045.5,0.253,749.8,01.17,0.508
2016-08-12 04:03:00,2166E-3,5C000400,-0724,0824,12206,029.0,045.5,0.253,749.8,01.17,0.508
2016-08-12 04:04:00,2299E-3,5C000400,-0724,0824,12244,029.0,045.5,0.253,749.9,01.17,0.508
2016-08-12 04:05:00,2332E-3,5C000400,-0724,0824,12250,029.0,045.5,0.253,749.9,01.17,0.508
2016-08-12 04:06:00,2274E-3,5C000400,-0724,0824,12171,029.0,045.5,0.253,749.8,01.17,0.508
2016-08-12 04:07:00,2395E-3,5C000400,-0724,0824,12203,029.0,045.5,0.253,749.9,01.17,0.508
2016-08-12 04:08:00,2268E-3,5C000400,-0724,0824,12251,029.0,045.5,0.253,749.8,01.17,0.508
2016-08-12 04:09:00,2196E-3,5C000400,-0724,0825,12362,029.0,045.5,0.253,749.8,01.17,0.508
2016-08-12 04:10:00,2312E-3,5C000400,-0724,0824,12254,029.0,045.5,0.253,749.7,01.17,0.508
2016-08-12 04:11:00,2289E-3,5C000400,-0724,0825,12319,029.0,045.5,0.253,749.7,01.17,0.508
2016-08-12 04:12:00,2257E-3,5C000400,-0724,0825,12109,029.0,045.5,0.253,749.8,01.17,0.508
2016-08-12 04:13:00,2338E-3,5C000400,-0724,0825,12278,029.0,045.5,0.253,749.8,01.17,0.508
2016-08-12 04:14:00,2091E-3,5C000400,-0724,0823,12181,029.0,045.5,0.253,749.7,01.17,0.508
2016-08-12 04:15:00,2219E-3,5C000400,-0724,0824,12252,029.0,045.5,0.253,749.6,01.17,0.508
2016-08-12 04:16:00,2243E-3,5C000400,-0724,0824,12249,029.0,045.5,0.253,749.7,01.17,0.508
2016-08-12 04:17:00,2195E-3,5C000400,-0724,0824,12233,029.0,045.5,0.253,749.7,01.17,0.508
2016-08-12 04:18:00,2311E-3,5C000400,-0724,0825,12232,029.0,045.5,0.253,749.7,01.17,0.508
2016-08-12 04:19:00,2231E-3,5C000400,-0724,0824,12156,029.0,045.5,0.253,749.6,01.17,0.508
2016-08-12 04:20:00,2547E-3,5C000400,-0724,0824,12176,029.0,045.5,0.253,749.6,01.17,0.508